Year,Month,Day,Hour,Minute,Value (Times are PST for temperature in C)
2018,04,19,00,00,4.80
2018,04,19,00,01,4.80
2018,04,19,00,02,4.80
2018,04,19,00,03,4.80
2018,04,19,00,04,4.80
2018,04,19,00,05,4.80
2018,04,19,00,06,4.70
2018,04,19,00,07,4.70
2018,04,19,00,08,4.70
2018,04,19,00,09,4.70
2018,04,19,00,10,4.70
2018,04,19,00,11,4.60
2018,04,19,00,12,4.60
2018,04,19,00,13,4.60
2018,04,19,00,14,4.60
2018,04,19,00,15,4.50
2018,04,19,00,16,4.50
2018,04,19,00,17,4.50
2018,04,19,00,18,4.50
2018,04,19,00,19,4.50
2018,04,19,00,20,4.50
2018,04,19,00,21,4.50
2018,04,19,00,22,4.50
2018,04,19,00,23,4.50
2018,04,19,00,24,4.50
2018,04,19,00,25,4.50
2018,04,19,00,26,4.50
2018,04,19,00,27,4.50
2018,04,19,00,28,4.50
2018,04,19,00,29,4.50
2018,04,19,00,30,4.50
2018,04,19,00,31,4.40
2018,04,19,00,32,4.40
2018,04,19,00,33,4.40
2018,04,19,00,34,4.40
2018,04,19,00,35,4.30
2018,04,19,00,36,4.30
2018,04,19,00,37,4.30
2018,04,19,00,38,4.30
2018,04,19,00,39,4.20
2018,04,19,00,40,4.20
2018,04,19,00,41,4.20
2018,04,19,00,42,4.20
2018,04,19,00,43,4.20
2018,04,19,00,44,4.20
2018,04,19,00,45,4.20
2018,04,19,00,46,4.20
2018,04,19,00,47,4.20
2018,04,19,00,48,4.20
2018,04,19,00,49,4.20
2018,04,19,00,50,4.20
2018,04,19,00,51,4.20
2018,04,19,00,52,4.10
2018,04,19,00,53,4.10
2018,04,19,00,54,4.10
2018,04,19,00,55,4.10
2018,04,19,00,56,4.10
2018,04,19,00,57,4.10
2018,04,19,00,58,4.10
2018,04,19,00,59,4.10
2018,04,19,01,00,4.10
2018,04,19,01,01,4.10
2018,04,19,01,02,4.10
2018,04,19,01,03,4.10
2018,04,19,01,04,4.00
2018,04,19,01,05,4.00
2018,04,19,01,06,4.00
2018,04,19,01,07,4.00
2018,04,19,01,08,3.90
2018,04,19,01,09,3.90
2018,04,19,01,10,3.90
2018,04,19,01,11,3.90
2018,04,19,01,12,3.90
2018,04,19,01,13,3.90
2018,04,19,01,14,3.90
2018,04,19,01,15,3.90
2018,04,19,01,16,3.90
2018,04,19,01,17,3.90
2018,04,19,01,18,3.80
2018,04,19,01,19,3.80
2018,04,19,01,20,3.80
2018,04,19,01,21,3.80
2018,04,19,01,22,3.80
2018,04,19,01,23,3.80
2018,04,19,01,24,3.80
2018,04,19,01,25,3.80
2018,04,19,01,26,3.80
2018,04,19,01,27,3.80
2018,04,19,01,28,3.80
2018,04,19,01,29,3.80
2018,04,19,01,30,3.70
2018,04,19,01,31,3.70
2018,04,19,01,32,3.70
2018,04,19,01,33,3.60
2018,04,19,01,34,3.60
2018,04,19,01,35,3.50
2018,04,19,01,36,3.40
2018,04,19,01,37,3.40
2018,04,19,01,38,3.40
2018,04,19,01,39,3.30
2018,04,19,01,40,3.30
2018,04,19,01,41,3.30
2018,04,19,01,42,3.30
2018,04,19,01,43,3.30
2018,04,19,01,44,3.30
2018,04,19,01,45,3.30
2018,04,19,01,46,3.30
2018,04,19,01,47,3.30
2018,04,19,01,48,3.30
2018,04,19,01,49,3.30
2018,04,19,01,50,3.30
2018,04,19,01,51,3.30
2018,04,19,01,52,3.30
2018,04,19,01,53,3.30
2018,04,19,01,54,3.30
2018,04,19,01,55,3.30
2018,04,19,01,56,3.20
2018,04,19,01,57,3.20
2018,04,19,01,58,3.20
2018,04,19,01,59,3.20
2018,04,19,02,00,3.20
2018,04,19,02,01,3.20
2018,04,19,02,02,3.20
2018,04,19,02,03,3.20
2018,04,19,02,04,3.20
2018,04,19,02,05,3.20
2018,04,19,02,06,3.20
2018,04,19,02,07,3.20
2018,04,19,02,08,3.20
2018,04,19,02,09,3.10
2018,04,19,02,10,3.20
2018,04,19,02,11,3.20
2018,04,19,02,12,3.20
2018,04,19,02,13,3.20
2018,04,19,02,14,3.20
2018,04,19,02,15,3.20
2018,04,19,02,16,3.20
2018,04,19,02,17,3.20
2018,04,19,02,18,3.20
2018,04,19,02,19,3.10
2018,04,19,02,20,3.10
2018,04,19,02,21,3.10
2018,04,19,02,22,3.10
2018,04,19,02,23,3.10
2018,04,19,02,24,3.10
2018,04,19,02,25,3.10
2018,04,19,02,26,3.00
2018,04,19,02,27,3.00
2018,04,19,02,28,3.00
2018,04,19,02,29,3.00
2018,04,19,02,30,3.00
2018,04,19,02,31,3.00
2018,04,19,02,32,3.00
2018,04,19,02,33,3.00
2018,04,19,02,34,3.00
2018,04,19,02,35,3.00
2018,04,19,02,36,2.90
2018,04,19,02,37,2.90
2018,04,19,02,38,2.90
2018,04,19,02,39,2.90
2018,04,19,02,40,2.90
2018,04,19,02,41,2.90
2018,04,19,02,42,2.90
2018,04,19,02,43,2.90
2018,04,19,02,44,2.90
2018,04,19,02,45,2.90
2018,04,19,02,46,2.80
2018,04,19,02,47,2.80
2018,04,19,02,48,2.80
2018,04,19,02,49,2.80
2018,04,19,02,50,2.80
2018,04,19,02,51,2.70
2018,04,19,02,52,2.70
2018,04,19,02,53,2.70
2018,04,19,02,54,2.70
2018,04,19,02,55,2.70
2018,04,19,02,56,2.60
2018,04,19,02,57,2.60
2018,04,19,02,58,2.60
2018,04,19,02,59,2.60
2018,04,19,03,00,2.60
2018,04,19,03,01,2.50
2018,04,19,03,02,2.50
2018,04,19,03,03,2.40
2018,04,19,03,04,2.40
2018,04,19,03,05,2.40
2018,04,19,03,06,2.40
2018,04,19,03,07,2.40
2018,04,19,03,08,2.30
2018,04,19,03,09,2.30
2018,04,19,03,10,2.30
2018,04,19,03,11,2.30
2018,04,19,03,12,2.30
2018,04,19,03,13,2.30
2018,04,19,03,14,2.30
2018,04,19,03,15,2.40
2018,04,19,03,16,2.40
2018,04,19,03,17,2.40
2018,04,19,03,18,2.40
2018,04,19,03,19,2.40
2018,04,19,03,20,2.40
2018,04,19,03,21,2.30
2018,04,19,03,22,2.30
2018,04,19,03,23,2.30
2018,04,19,03,24,2.30
2018,04,19,03,25,2.30
2018,04,19,03,26,2.30
2018,04,19,03,27,2.30
2018,04,19,03,28,2.30
2018,04,19,03,29,2.30
2018,04,19,03,30,2.30
2018,04,19,03,31,2.30
2018,04,19,03,32,2.30
2018,04,19,03,33,2.30
2018,04,19,03,34,2.30
2018,04,19,03,35,2.30
2018,04,19,03,36,2.30
2018,04,19,03,37,2.30
2018,04,19,03,38,2.30
2018,04,19,03,39,2.30
2018,04,19,03,40,2.20
2018,04,19,03,41,2.20
2018,04,19,03,42,2.20
2018,04,19,03,43,2.20
2018,04,19,03,44,2.20
2018,04,19,03,45,2.20
2018,04,19,03,46,2.20
2018,04,19,03,47,2.20
2018,04,19,03,48,2.20
2018,04,19,03,49,2.20
2018,04,19,03,50,2.20
2018,04,19,03,51,2.20
2018,04,19,03,52,2.20
2018,04,19,03,53,2.20
2018,04,19,03,54,2.20
2018,04,19,03,55,2.20
2018,04,19,03,56,2.20
2018,04,19,03,57,2.10
2018,04,19,03,58,2.10
2018,04,19,03,59,2.10
2018,04,19,04,00,2.10
2018,04,19,04,01,2.10
2018,04,19,04,02,2.00
2018,04,19,04,03,2.00
2018,04,19,04,04,2.00
2018,04,19,04,05,1.90
2018,04,19,04,06,1.90
2018,04,19,04,07,1.90
2018,04,19,04,08,1.90
2018,04,19,04,09,1.90
2018,04,19,04,10,1.90
2018,04,19,04,11,1.90
2018,04,19,04,12,1.90
2018,04,19,04,13,1.90
2018,04,19,04,14,1.90
2018,04,19,04,15,1.90
2018,04,19,04,16,1.90
2018,04,19,04,17,1.90
2018,04,19,04,18,1.90
2018,04,19,04,19,1.90
2018,04,19,04,20,1.90
2018,04,19,04,21,1.90
2018,04,19,04,22,1.80
2018,04,19,04,23,1.80
2018,04,19,04,24,1.80
2018,04,19,04,25,1.80
2018,04,19,04,26,1.80
2018,04,19,04,27,1.80
2018,04,19,04,28,1.80
2018,04,19,04,29,1.80
2018,04,19,04,30,1.80
2018,04,19,04,31,1.90
2018,04,19,04,32,1.90
2018,04,19,04,33,1.90
2018,04,19,04,34,1.90
2018,04,19,04,35,2.00
2018,04,19,04,36,2.00
2018,04,19,04,37,2.00
2018,04,19,04,38,2.00
2018,04,19,04,39,1.90
2018,04,19,04,40,1.90
2018,04,19,04,41,1.90
2018,04,19,04,42,1.90
2018,04,19,04,43,1.90
2018,04,19,04,44,1.90
2018,04,19,04,45,1.90
2018,04,19,04,46,1.90
2018,04,19,04,47,1.90
2018,04,19,04,48,1.90
2018,04,19,04,49,1.90
2018,04,19,04,50,1.90
2018,04,19,04,51,1.90
2018,04,19,04,52,1.90
2018,04,19,04,53,1.80
2018,04,19,04,54,1.90
2018,04,19,04,55,1.80
2018,04,19,04,56,1.80
2018,04,19,04,57,1.80
2018,04,19,04,58,1.80
2018,04,19,04,59,1.80
2018,04,19,05,00,1.80
2018,04,19,05,01,1.80
2018,04,19,05,02,1.80
2018,04,19,05,03,1.80
2018,04,19,05,04,1.80
2018,04,19,05,05,1.80
2018,04,19,05,06,1.70
2018,04,19,05,07,1.70
2018,04,19,05,08,1.70
2018,04,19,05,09,1.70
2018,04,19,05,10,1.70
2018,04,19,05,11,1.70
2018,04,19,05,12,1.70
2018,04,19,05,13,1.70
2018,04,19,05,14,1.70
2018,04,19,05,15,1.70
2018,04,19,05,16,1.70
2018,04,19,05,17,1.70
2018,04,19,05,18,1.70
2018,04,19,05,19,1.60
2018,04,19,05,20,1.60
2018,04,19,05,21,1.60
2018,04,19,05,22,1.60
2018,04,19,05,23,1.60
2018,04,19,05,24,1.60
2018,04,19,05,25,1.60
2018,04,19,05,26,1.60
2018,04,19,05,27,1.60
2018,04,19,05,28,1.70
2018,04,19,05,29,1.70
2018,04,19,05,30,1.70
2018,04,19,05,31,1.70
2018,04,19,05,32,1.70
2018,04,19,05,33,1.70
2018,04,19,05,34,1.70
2018,04,19,05,35,1.70
2018,04,19,05,36,1.70
2018,04,19,05,37,1.70
2018,04,19,05,38,1.70
2018,04,19,05,39,1.70
2018,04,19,05,40,1.70
2018,04,19,05,41,1.70
2018,04,19,05,42,1.70
2018,04,19,05,43,1.70
2018,04,19,05,44,1.70
2018,04,19,05,45,1.70
2018,04,19,05,46,1.60
2018,04,19,05,47,1.60
2018,04,19,05,48,1.60
2018,04,19,05,49,1.60
2018,04,19,05,50,1.60
2018,04,19,05,51,1.60
2018,04,19,05,52,1.60
2018,04,19,05,53,1.60
2018,04,19,05,54,1.60
2018,04,19,05,55,1.50
2018,04,19,05,56,1.50
2018,04,19,05,57,1.50
2018,04,19,05,58,1.60
2018,04,19,05,59,1.60
2018,04,19,06,00,1.60
2018,04,19,06,01,1.60
2018,04,19,06,02,1.60
2018,04,19,06,03,1.50
2018,04,19,06,04,1.50
2018,04,19,06,05,1.50
2018,04,19,06,06,1.50
2018,04,19,06,07,1.50
2018,04,19,06,08,1.50
2018,04,19,06,09,1.50
2018,04,19,06,10,1.50
2018,04,19,06,11,1.50
2018,04,19,06,12,1.40
2018,04,19,06,13,1.40
2018,04,19,06,14,1.40
2018,04,19,06,15,1.40
2018,04,19,06,16,1.40
2018,04,19,06,17,1.40
2018,04,19,06,18,1.40
2018,04,19,06,19,1.30
2018,04,19,06,20,1.30
2018,04,19,06,21,1.30
2018,04,19,06,22,1.30
2018,04,19,06,23,1.30
2018,04,19,06,24,1.30
2018,04,19,06,25,1.30
2018,04,19,06,26,1.30
2018,04,19,06,27,1.30
2018,04,19,06,28,1.30
2018,04,19,06,29,1.30
2018,04,19,06,30,1.30
2018,04,19,06,31,1.30
2018,04,19,06,32,1.30
2018,04,19,06,33,1.30
2018,04,19,06,34,1.30
2018,04,19,06,35,1.30
2018,04,19,06,36,1.30
2018,04,19,06,37,1.30
2018,04,19,06,38,1.30
2018,04,19,06,39,1.30
2018,04,19,06,40,1.30
2018,04,19,06,41,1.30
2018,04,19,06,42,1.30
2018,04,19,06,43,1.30
2018,04,19,06,44,1.30
2018,04,19,06,45,1.30
2018,04,19,06,46,1.30
2018,04,19,06,47,1.30
2018,04,19,06,48,1.30
2018,04,19,06,49,1.30
2018,04,19,06,50,1.40
2018,04,19,06,51,1.40
2018,04,19,06,52,1.40
2018,04,19,06,53,1.50
2018,04,19,06,54,1.50
2018,04,19,06,55,1.50
2018,04,19,06,56,1.50
2018,04,19,06,57,1.60
2018,04,19,06,58,1.60
2018,04,19,06,59,1.60
2018,04,19,07,00,1.60
2018,04,19,07,01,1.70
2018,04,19,07,02,1.70
2018,04,19,07,03,1.70
2018,04,19,07,04,1.80
2018,04,19,07,05,1.80
2018,04,19,07,06,1.80
2018,04,19,07,07,1.80
2018,04,19,07,08,1.90
2018,04,19,07,09,1.90
2018,04,19,07,10,2.00
2018,04,19,07,11,2.10
2018,04,19,07,12,2.10
2018,04,19,07,13,2.20
2018,04,19,07,14,2.30
2018,04,19,07,15,2.40
2018,04,19,07,16,2.50
2018,04,19,07,17,2.50
2018,04,19,07,18,2.60
2018,04,19,07,19,2.70
2018,04,19,07,20,2.70
2018,04,19,07,21,2.80
2018,04,19,07,22,2.90
2018,04,19,07,23,2.90
2018,04,19,07,24,3.00
2018,04,19,07,25,3.00
2018,04,19,07,26,3.00
2018,04,19,07,27,3.10
2018,04,19,07,28,3.10
2018,04,19,07,29,3.10
2018,04,19,07,30,3.10
2018,04,19,07,31,3.10
2018,04,19,07,32,3.20
2018,04,19,07,33,3.20
2018,04,19,07,34,3.30
2018,04,19,07,35,3.30
2018,04,19,07,36,3.30
2018,04,19,07,37,3.30
2018,04,19,07,38,3.30
2018,04,19,07,39,3.30
2018,04,19,07,40,3.40
2018,04,19,07,41,3.40
2018,04,19,07,42,3.40
2018,04,19,07,43,3.50
2018,04,19,07,44,3.60
2018,04,19,07,45,3.60
2018,04,19,07,46,3.70
2018,04,19,07,47,3.80
2018,04,19,07,48,3.80
2018,04,19,07,49,3.90
2018,04,19,07,50,3.90
2018,04,19,07,51,3.90
2018,04,19,07,52,3.90
2018,04,19,07,53,3.90
2018,04,19,07,54,4.00
2018,04,19,07,55,4.00
2018,04,19,07,56,4.00
2018,04,19,07,57,4.10
2018,04,19,07,58,4.10
2018,04,19,07,59,4.20
2018,04,19,08,00,4.20
2018,04,19,08,01,4.20
2018,04,19,08,02,4.30
2018,04,19,08,03,4.40
2018,04,19,08,04,4.50
2018,04,19,08,05,4.60
2018,04,19,08,06,4.80
2018,04,19,08,07,4.90
2018,04,19,08,08,5.00
2018,04,19,08,09,5.10
2018,04,19,08,10,5.20
2018,04,19,08,11,5.30
2018,04,19,08,12,5.40
2018,04,19,08,13,5.60
2018,04,19,08,14,5.60
2018,04,19,08,15,5.70
2018,04,19,08,16,5.80
2018,04,19,08,17,5.80
2018,04,19,08,18,5.80
2018,04,19,08,19,5.80
2018,04,19,08,20,5.90
2018,04,19,08,21,5.90
2018,04,19,08,22,5.90
2018,04,19,08,23,6.00
2018,04,19,08,24,6.00
2018,04,19,08,25,6.10
2018,04,19,08,26,6.10
2018,04,19,08,27,6.10
2018,04,19,08,28,6.20
2018,04,19,08,29,6.20
2018,04,19,08,30,6.20
2018,04,19,08,31,6.20
2018,04,19,08,32,6.30
2018,04,19,08,33,6.40
2018,04,19,08,34,6.40
2018,04,19,08,35,6.50
2018,04,19,08,36,6.50
2018,04,19,08,37,6.60
2018,04,19,08,38,6.70
2018,04,19,08,39,6.70
2018,04,19,08,40,6.80
2018,04,19,08,41,6.80
2018,04,19,08,42,6.90
2018,04,19,08,43,7.00
2018,04,19,08,44,7.10
2018,04,19,08,45,7.20
2018,04,19,08,46,7.30
2018,04,19,08,47,7.30
2018,04,19,08,48,7.40
2018,04,19,08,49,7.50
2018,04,19,08,50,7.60
2018,04,19,08,51,7.70
2018,04,19,08,52,7.80
2018,04,19,08,53,7.90
2018,04,19,08,54,8.00
2018,04,19,08,55,8.10
2018,04,19,08,56,8.20
2018,04,19,08,57,8.20
2018,04,19,08,58,8.30
2018,04,19,08,59,8.50
2018,04,19,09,00,8.50
2018,04,19,09,01,8.60
2018,04,19,09,02,8.60
2018,04,19,09,03,8.70
2018,04,19,09,04,8.70
2018,04,19,09,05,8.80
2018,04,19,09,06,8.90
2018,04,19,09,07,9.00
2018,04,19,09,08,9.10
2018,04,19,09,09,9.20
2018,04,19,09,10,9.20
2018,04,19,09,11,9.30
2018,04,19,09,12,9.30
2018,04,19,09,13,9.30
2018,04,19,09,14,9.40
2018,04,19,09,15,9.50
2018,04,19,09,16,9.60
2018,04,19,09,17,9.70
2018,04,19,09,18,9.80
2018,04,19,09,19,9.80
2018,04,19,09,20,9.80
2018,04,19,09,21,9.90
2018,04,19,09,22,9.90
2018,04,19,09,23,10.00
2018,04,19,09,24,10.00
2018,04,19,09,25,10.10
2018,04,19,09,26,10.00
2018,04,19,09,27,10.00
2018,04,19,09,28,10.10
2018,04,19,09,29,10.10
2018,04,19,09,30,10.10
2018,04,19,09,31,10.10
2018,04,19,09,32,10.20
2018,04,19,09,33,10.20
2018,04,19,09,34,10.30
2018,04,19,09,35,10.30
2018,04,19,09,36,10.40
2018,04,19,09,37,10.50
2018,04,19,09,38,10.50
2018,04,19,09,39,10.60
2018,04,19,09,40,10.70
2018,04,19,09,41,10.70
2018,04,19,09,42,10.70
2018,04,19,09,43,10.80
2018,04,19,09,44,10.80
2018,04,19,09,45,10.80
2018,04,19,09,46,10.80
2018,04,19,09,47,10.80
2018,04,19,09,48,10.90
2018,04,19,09,49,10.90
2018,04,19,09,50,10.90
2018,04,19,09,51,10.90
2018,04,19,09,52,10.90
2018,04,19,09,53,11.00
2018,04,19,09,54,11.00
2018,04,19,09,55,11.10
2018,04,19,09,56,11.10
2018,04,19,09,57,11.20
2018,04,19,09,58,11.20
2018,04,19,09,59,11.30
2018,04,19,10,00,11.30
2018,04,19,10,01,11.30
2018,04,19,10,02,11.40
2018,04,19,10,03,11.50
2018,04,19,10,04,11.60
2018,04,19,10,05,11.70
2018,04,19,10,06,11.80
2018,04,19,10,07,11.80
2018,04,19,10,08,11.80
2018,04,19,10,09,11.90
2018,04,19,10,10,11.90
2018,04,19,10,11,12.00
2018,04,19,10,12,12.10
2018,04,19,10,13,12.10
2018,04,19,10,14,12.10
2018,04,19,10,15,12.10
2018,04,19,10,16,12.00
2018,04,19,10,17,12.00
2018,04,19,10,18,12.00
2018,04,19,10,19,12.00
2018,04,19,10,20,12.00
2018,04,19,10,21,12.00
2018,04,19,10,22,11.90
2018,04,19,10,23,11.80
2018,04,19,10,24,11.60
2018,04,19,10,25,11.50
2018,04,19,10,26,11.40
2018,04,19,10,27,11.40
2018,04,19,10,28,11.40
2018,04,19,10,29,11.40
2018,04,19,10,30,11.50
2018,04,19,10,31,11.50
2018,04,19,10,32,11.50
2018,04,19,10,33,11.40
2018,04,19,10,34,11.30
2018,04,19,10,35,11.10
2018,04,19,10,36,11.00
2018,04,19,10,37,11.00
2018,04,19,10,38,11.00
2018,04,19,10,39,11.00
2018,04,19,10,40,11.10
2018,04,19,10,41,11.10
2018,04,19,10,42,11.20
2018,04,19,10,43,11.30
2018,04,19,10,44,11.40
2018,04,19,10,45,11.40
2018,04,19,10,46,11.40
2018,04,19,10,47,11.30
2018,04,19,10,48,11.30
2018,04,19,10,49,11.30
2018,04,19,10,50,11.30
2018,04,19,10,51,11.30
2018,04,19,10,52,11.30
2018,04,19,10,53,11.30
2018,04,19,10,54,11.30
2018,04,19,10,55,11.30
2018,04,19,10,56,11.40
2018,04,19,10,57,11.40
2018,04,19,10,58,11.40
2018,04,19,10,59,11.40
2018,04,19,11,00,11.30
2018,04,19,11,01,11.30
2018,04,19,11,02,11.30
2018,04,19,11,03,11.30
2018,04,19,11,04,11.30
2018,04,19,11,05,11.30
2018,04,19,11,06,11.30
2018,04,19,11,07,11.20
2018,04,19,11,08,11.20
2018,04,19,11,09,11.30
2018,04,19,11,10,11.30
2018,04,19,11,11,11.40
2018,04,19,11,12,11.40
2018,04,19,11,13,11.40
2018,04,19,11,14,11.50
2018,04,19,11,15,11.60
2018,04,19,11,16,11.70
2018,04,19,11,17,11.70
2018,04,19,11,18,11.70
2018,04,19,11,19,11.70
2018,04,19,11,20,11.70
2018,04,19,11,21,11.70
2018,04,19,11,22,11.70
2018,04,19,11,23,11.70
2018,04,19,11,24,11.70
2018,04,19,11,25,11.70
2018,04,19,11,26,11.80
2018,04,19,11,27,11.80
2018,04,19,11,28,11.80
2018,04,19,11,29,11.80
2018,04,19,11,30,11.80
2018,04,19,11,31,11.80
2018,04,19,11,32,11.80
2018,04,19,11,33,11.90
2018,04,19,11,34,11.90
2018,04,19,11,35,11.80
2018,04,19,11,36,11.70
2018,04,19,11,37,11.70
2018,04,19,11,38,11.70
2018,04,19,11,39,11.80
2018,04,19,11,40,11.80
2018,04,19,11,41,11.70
2018,04,19,11,42,11.70
2018,04,19,11,43,11.60
2018,04,19,11,44,11.60
2018,04,19,11,45,11.70
2018,04,19,11,46,11.70
2018,04,19,11,47,11.70
2018,04,19,11,48,11.80
2018,04,19,11,49,11.80
2018,04,19,11,50,11.80
2018,04,19,11,51,11.80
2018,04,19,11,52,11.80
2018,04,19,11,53,11.80
2018,04,19,11,54,11.80
2018,04,19,11,55,11.80
2018,04,19,11,56,11.90
2018,04,19,11,57,11.90
2018,04,19,11,58,11.90
2018,04,19,11,59,11.90
2018,04,19,12,00,11.80
2018,04,19,12,01,11.70
2018,04,19,12,02,11.70
2018,04,19,12,03,11.70
2018,04,19,12,04,11.70
2018,04,19,12,05,11.70
2018,04,19,12,06,11.70
2018,04,19,12,07,11.60
2018,04,19,12,08,11.60
2018,04,19,12,09,11.60
2018,04,19,12,10,11.60
2018,04,19,12,11,11.60
2018,04,19,12,12,11.70
2018,04,19,12,13,11.70
2018,04,19,12,14,11.80
2018,04,19,12,15,11.80
2018,04,19,12,16,11.90
2018,04,19,12,17,12.00
2018,04,19,12,18,12.00
2018,04,19,12,19,12.10
2018,04,19,12,20,12.10
2018,04,19,12,21,12.10
2018,04,19,12,22,12.00
2018,04,19,12,23,11.80
2018,04,19,12,24,11.80
2018,04,19,12,25,11.70
2018,04,19,12,26,11.70
2018,04,19,12,27,11.70
2018,04,19,12,28,11.70
2018,04,19,12,29,11.70
2018,04,19,12,30,11.70
2018,04,19,12,31,11.70
2018,04,19,12,32,11.70
2018,04,19,12,33,11.70
2018,04,19,12,34,11.70
2018,04,19,12,35,11.70
2018,04,19,12,36,11.70
2018,04,19,12,37,11.70
2018,04,19,12,38,11.70
2018,04,19,12,39,11.70
2018,04,19,12,40,11.80
2018,04,19,12,41,11.90
2018,04,19,12,42,11.90
2018,04,19,12,43,11.70
2018,04,19,12,44,11.70
2018,04,19,12,45,11.70
2018,04,19,12,46,11.60
2018,04,19,12,47,11.60
2018,04,19,12,48,11.60
2018,04,19,12,49,11.60
2018,04,19,12,50,11.60
2018,04,19,12,51,11.60
2018,04,19,12,52,11.60
2018,04,19,12,53,11.60
2018,04,19,12,54,11.70
2018,04,19,12,55,11.70
2018,04,19,12,56,11.70
2018,04,19,12,57,11.70
2018,04,19,12,58,11.80
2018,04,19,12,59,11.80
2018,04,19,13,00,11.80
2018,04,19,13,01,11.80
2018,04,19,13,02,11.90
2018,04,19,13,03,11.90
2018,04,19,13,04,11.90
2018,04,19,13,05,11.90
2018,04,19,13,06,11.80
2018,04,19,13,07,11.80
2018,04,19,13,08,11.80
2018,04,19,13,09,11.80
2018,04,19,13,10,11.80
2018,04,19,13,11,11.80
2018,04,19,13,12,11.80
2018,04,19,13,13,11.70
2018,04,19,13,14,11.60
2018,04,19,13,15,11.60
2018,04,19,13,16,11.60
2018,04,19,13,17,11.50
2018,04,19,13,18,11.50
2018,04,19,13,19,11.50
2018,04,19,13,20,11.40
2018,04,19,13,21,11.40
2018,04,19,13,22,11.40
2018,04,19,13,23,11.40
2018,04,19,13,24,11.40
2018,04,19,13,25,11.40
2018,04,19,13,26,11.40
2018,04,19,13,27,11.40
2018,04,19,13,28,11.40
2018,04,19,13,29,11.40
2018,04,19,13,30,11.30
2018,04,19,13,31,11.30
2018,04,19,13,32,11.30
2018,04,19,13,33,11.30
2018,04,19,13,34,11.40
2018,04,19,13,35,11.40
2018,04,19,13,36,11.40
2018,04,19,13,37,11.50
2018,04,19,13,38,11.60
2018,04,19,13,39,11.60
2018,04,19,13,40,11.60
2018,04,19,13,41,11.60
2018,04,19,13,42,11.60
2018,04,19,13,43,11.50
2018,04,19,13,44,11.50
2018,04,19,13,45,11.50
2018,04,19,13,46,11.50
2018,04,19,13,47,11.50
2018,04,19,13,48,11.40
2018,04,19,13,49,11.40
2018,04,19,13,50,11.40
2018,04,19,13,51,11.40
2018,04,19,13,52,11.50
2018,04,19,13,53,11.60
2018,04,19,13,54,11.60
2018,04,19,13,55,11.60
2018,04,19,13,56,11.60
2018,04,19,13,57,11.60
2018,04,19,13,58,11.50
2018,04,19,13,59,11.50
2018,04,19,14,00,11.60
2018,04,19,14,01,11.60
2018,04,19,14,02,11.60
2018,04,19,14,03,11.60
2018,04,19,14,04,11.70
2018,04,19,14,05,11.70
2018,04,19,14,06,11.60
2018,04,19,14,07,11.60
2018,04,19,14,08,11.60
2018,04,19,14,09,11.60
2018,04,19,14,10,11.60
2018,04,19,14,11,11.70
2018,04,19,14,12,11.70
2018,04,19,14,13,11.80
2018,04,19,14,14,11.90
2018,04,19,14,15,11.90
2018,04,19,14,16,11.90
2018,04,19,14,17,11.90
2018,04,19,14,18,11.90
2018,04,19,14,19,12.00
2018,04,19,14,20,12.10
2018,04,19,14,21,12.10
2018,04,19,14,22,12.10
2018,04,19,14,23,12.00
2018,04,19,14,24,12.00
2018,04,19,14,25,12.00
2018,04,19,14,26,12.00
2018,04,19,14,27,11.90
2018,04,19,14,28,11.90
2018,04,19,14,29,11.90
2018,04,19,14,30,11.90
2018,04,19,14,31,11.90
2018,04,19,14,32,11.80
2018,04,19,14,33,11.80
2018,04,19,14,34,11.80
2018,04,19,14,35,11.80
2018,04,19,14,36,11.80
2018,04,19,14,37,11.80
2018,04,19,14,38,11.80
2018,04,19,14,39,11.80
2018,04,19,14,40,11.90
2018,04,19,14,41,11.90
2018,04,19,14,42,11.90
2018,04,19,14,43,11.90
2018,04,19,14,44,11.90
2018,04,19,14,45,11.90
2018,04,19,14,46,11.90
2018,04,19,14,47,11.90
2018,04,19,14,48,11.80
2018,04,19,14,49,11.80
2018,04,19,14,50,11.70
2018,04,19,14,51,11.70
2018,04,19,14,52,11.70
2018,04,19,14,53,11.70
2018,04,19,14,54,11.70
2018,04,19,14,55,11.70
2018,04,19,14,56,11.70
2018,04,19,14,57,11.60
2018,04,19,14,58,11.60
2018,04,19,14,59,11.60
2018,04,19,15,00,11.60
2018,04,19,15,01,11.50
2018,04,19,15,02,11.50
2018,04,19,15,03,11.40
2018,04,19,15,04,11.40
2018,04,19,15,05,11.40
2018,04,19,15,06,11.40
2018,04,19,15,07,11.40
2018,04,19,15,08,11.30
2018,04,19,15,09,11.30
2018,04,19,15,10,11.30
2018,04,19,15,11,11.40
2018,04,19,15,12,11.30
2018,04,19,15,13,11.30
2018,04,19,15,14,11.30
2018,04,19,15,15,11.30
2018,04,19,15,16,11.30
2018,04,19,15,17,11.30
2018,04,19,15,18,11.40
2018,04,19,15,19,11.50
2018,04,19,15,20,11.40
2018,04,19,15,21,11.40
2018,04,19,15,22,11.40
2018,04,19,15,23,11.40
2018,04,19,15,24,11.40
2018,04,19,15,25,11.40
2018,04,19,15,26,11.40
2018,04,19,15,27,11.40
2018,04,19,15,28,11.40
2018,04,19,15,29,11.40
2018,04,19,15,30,11.40
2018,04,19,15,31,11.40
2018,04,19,15,32,11.30
2018,04,19,15,33,11.30
2018,04,19,15,34,11.30
2018,04,19,15,35,11.30
2018,04,19,15,36,11.30
2018,04,19,15,37,11.30
2018,04,19,15,38,11.20
2018,04,19,15,39,11.20
2018,04,19,15,40,11.10
2018,04,19,15,41,11.00
2018,04,19,15,42,10.90
2018,04,19,15,43,10.80
2018,04,19,15,44,10.70
2018,04,19,15,45,10.70
2018,04,19,15,46,10.70
2018,04,19,15,47,10.70
2018,04,19,15,48,10.70
2018,04,19,15,49,10.70
2018,04,19,15,50,10.70
2018,04,19,15,51,10.70
2018,04,19,15,52,10.80
2018,04,19,15,53,10.80
2018,04,19,15,54,10.80
2018,04,19,15,55,10.80
2018,04,19,15,56,10.80
2018,04,19,15,57,10.90
2018,04,19,15,58,11.00
2018,04,19,15,59,11.10
2018,04,19,16,00,11.20
2018,04,19,16,01,11.10
2018,04,19,16,02,11.20
2018,04,19,16,03,11.20
2018,04,19,16,04,11.30
2018,04,19,16,05,11.30
2018,04,19,16,06,11.30
2018,04,19,16,07,11.20
2018,04,19,16,08,11.10
2018,04,19,16,09,11.10
2018,04,19,16,10,11.10
2018,04,19,16,11,11.10
2018,04,19,16,12,11.20
2018,04,19,16,13,11.20
2018,04,19,16,14,11.20
2018,04,19,16,15,11.30
2018,04,19,16,16,11.30
2018,04,19,16,17,11.40
2018,04,19,16,18,11.50
2018,04,19,16,19,11.60
2018,04,19,16,20,11.60
2018,04,19,16,21,11.70
2018,04,19,16,22,11.80
2018,04,19,16,23,11.90
2018,04,19,16,24,11.80
2018,04,19,16,25,11.80
2018,04,19,16,26,11.80
2018,04,19,16,27,11.80
2018,04,19,16,28,11.90
2018,04,19,16,29,11.90
2018,04,19,16,30,12.00
2018,04,19,16,31,12.00
2018,04,19,16,32,12.10
2018,04,19,16,33,12.10
2018,04,19,16,34,12.10
2018,04,19,16,35,12.10
2018,04,19,16,36,12.10
2018,04,19,16,37,12.20
2018,04,19,16,38,12.20
2018,04,19,16,39,12.30
2018,04,19,16,40,12.40
2018,04,19,16,41,12.50
2018,04,19,16,42,12.50
2018,04,19,16,43,12.50
2018,04,19,16,44,12.50
2018,04,19,16,45,12.50
2018,04,19,16,46,12.60
2018,04,19,16,47,12.60
2018,04,19,16,48,12.70
2018,04,19,16,49,12.80
2018,04,19,16,50,12.80
2018,04,19,16,51,12.80
2018,04,19,16,52,12.80
2018,04,19,16,53,12.90
2018,04,19,16,54,13.00
2018,04,19,16,55,13.10
2018,04,19,16,56,13.10
2018,04,19,16,57,13.00
2018,04,19,16,58,13.10
2018,04,19,16,59,13.10
2018,04,19,17,00,13.20
2018,04,19,17,01,13.20
2018,04,19,17,02,13.30
2018,04,19,17,03,13.30
2018,04,19,17,04,13.30
2018,04,19,17,05,13.30
2018,04,19,17,06,13.30
2018,04,19,17,07,13.30
2018,04,19,17,08,13.30
2018,04,19,17,09,13.30
2018,04,19,17,10,13.30
2018,04,19,17,11,13.30
2018,04,19,17,12,13.40
2018,04,19,17,13,13.40
2018,04,19,17,14,13.50
2018,04,19,17,15,13.50
2018,04,19,17,16,13.60
2018,04,19,17,17,13.60
2018,04,19,17,18,13.70
2018,04,19,17,19,13.70
2018,04,19,17,20,13.70
2018,04,19,17,21,13.70
2018,04,19,17,22,13.70
2018,04,19,17,23,13.70
2018,04,19,17,24,13.80
2018,04,19,17,25,13.90
2018,04,19,17,26,14.00
2018,04,19,17,27,14.10
2018,04,19,17,28,14.20
2018,04,19,17,29,14.30
2018,04,19,17,30,14.50
2018,04,19,17,31,14.50
2018,04,19,17,32,14.60
2018,04,19,17,33,14.70
2018,04,19,17,34,14.70
2018,04,19,17,35,14.70
2018,04,19,17,36,14.70
2018,04,19,17,37,14.70
2018,04,19,17,38,14.80
2018,04,19,17,39,14.80
2018,04,19,17,40,14.80
2018,04,19,17,41,14.90
2018,04,19,17,42,14.90
2018,04,19,17,43,15.00